sat.trackr.live / text

‹ back to catalog

RASSVET-3 1

NORAD 68360 · 2026-061A

PAYLOAD ACTIVE UNKNOWN

§ Identity

Operator
Country
CIS
Launch date
2026-03-23
Launch site
PLMSC
Launch vehicle
Mass (kg)
RCS (m²)

External: N2YO · Heavens-Above · Gunter

§ Orbital elements

Epoch: 2026-09-19T18:42:51.356448Z

Period
94.83 min
Inclination
82.2876°
Eccentricity
0.0002134
Mean motion
15.18440752 rev/d
Perigee alt
509.1 km
Apogee alt
512.0 km
Semi-major
6,888.7 km
B*
1.2097e-4
RAAN
275.6103°
Arg perigee
68.4985°
Mean anomaly
291.6476°
Rev number
2,792

§ Raw data

RASSVET-3 11 68360U 26061A   26262.77976107  .00002520  00000+0  12097-3 0  99902 68360  82.2876 275.6103 0002134  68.4985 291.6476 15.18440752 27924

JSON: /api/v1/satellites/68360 · /tle

For live sub-satellite position, see the globe view (requires WebGL).

§ Visibility from observer

Set your observer location to see the next 7 days of passes ≥ 10°. The values pass through the URL so the page stays shareable.

No JS? Fill the form by hand. The geolocation button needs JavaScript.